Weather History for Boonville, MO

Change the Weather History Date:

Sunday, May 26, 2013

  Actual Average Record
Temperature  
Mean Temperature 72 °F -  
Max Temperature 90 °F 76 °F 91 °F (2012)
Min Temperature 61 °F 56 °F 43 °F (1961)
Cooling Degree Days 6    
Growing Degree Days 22 (Base 50)    
Moisture  
Dew Point 65 °F    
Average Humidity 84    
Maximum Humidity 96    
Minimum Humidity 57    
Precipitation  
Precipitation 0.47 in - - ()
Sea Level Pressure  
Sea Level Pressure 30.04 in    
Wind  
Wind Speed 6 mph (SE)    
Max Wind Speed 13 mph    
Max Gust Speed 26 mph    
Visibility 10 miles    
Events Rain , Thunderstorm    
Averages and records for this station are not official NWS values.
T = Trace of Precipitation, MM = Missing Value Source: NWS Daily Summary

Daily Weather History Graph

Daily Weather History Graph

Search for Another Location

Airport:

Trip Planner

Search our weather history database for the weather conditions in past years. The results will help you decide how hot, cold, wet, or windy it might be!

Date:

Astronomy

May. 26, 2013 Rise Set
Actual Time 5:49 AM CDT 8:26 PM CDT
Civil Twilight 5:18 AM CDT 8:57 PM CDT
Nautical Twilight 4:40 AM CDT 9:35 PM CDT
Astronomical Twilight 3:57 AM CDT 10:19 PM CDT
Moon 10:14 PM CDT (5/26) 7:19 AM CDT (5/26)
Length of Visible Light 15h 38m
Length of Day
14h 36m
Waning Gibbous, 96% of the Moon is Illuminated
May 26
Waning Gibbous
May 31
Last Quarter
Jun 8
New
Jun 16
First Quarter
Jun 23
Full

Hourly Weather History & Observations

Time (CDT) Temp. Heat Index Dew Point Humidity Pressure Visibility Wind Dir Wind Speed Gust Speed Precip Events Conditions
12:15 AM 65.8 °F - 60.1 °F 82% 30.12 in 10.0 mi ESE 6.9 mph - N/A   Overcast
12:35 AM 65.3 °F - 59.9 °F 83% 30.12 in 10.0 mi ESE 9.2 mph - N/A   Scattered Clouds
12:55 AM 64.8 °F - 59.9 °F 84% 30.12 in 10.0 mi ESE 6.9 mph - N/A   Clear
1:15 AM 64.4 °F - 60.4 °F 87% 30.11 in 10.0 mi ESE 6.9 mph - N/A   Clear
1:35 AM 64.0 °F - 60.8 °F 89% 30.11 in 10.0 mi ESE 5.8 mph - N/A   Clear
1:55 AM 63.9 °F - 60.8 °F 90% 30.10 in 10.0 mi ESE 5.8 mph - N/A   Clear
2:15 AM 63.7 °F - 60.8 °F 90% 30.10 in 10.0 mi SE 5.8 mph - N/A   Clear
2:35 AM 63.1 °F - 60.8 °F 92% 30.09 in 10.0 mi SE 6.9 mph - N/A   Clear
2:55 AM 63.0 °F - 60.6 °F 92% 30.09 in 10.0 mi SE 4.6 mph - N/A   Clear
3:15 AM 62.8 °F - 60.4 °F 92% 30.09 in 10.0 mi SE 4.6 mph - N/A   Clear
3:35 AM 62.8 °F - 60.3 °F 91% 30.09 in 10.0 mi SE 5.8 mph - N/A   Clear
3:55 AM 62.6 °F - 60.3 °F 92% 30.10 in 10.0 mi SE 3.5 mph - N/A   Scattered Clouds
4:15 AM 62.6 °F - 60.3 °F 92% 30.09 in 10.0 mi SE 3.5 mph - N/A   Scattered Clouds
4:35 AM 62.8 °F - 60.8 °F 93% 30.09 in 10.0 mi ESE 4.6 mph - N/A   Mostly Cloudy
4:55 AM 63.1 °F - 60.8 °F 92% 30.08 in 10.0 mi SE 3.5 mph - N/A   Mostly Cloudy
5:15 AM 62.8 °F - 60.6 °F 93% 30.08 in 10.0 mi ESE 4.6 mph - N/A   Scattered Clouds
5:35 AM 62.2 °F - 60.4 °F 94% 30.08 in 10.0 mi ESE 4.6 mph - N/A   Clear
5:55 AM 61.9 °F - 60.3 °F 94% 30.08 in 10.0 mi ESE 4.6 mph - N/A   Clear
6:15 AM 61.7 °F - 60.1 °F 94% 30.08 in 10.0 mi SE 6.9 mph - N/A   Clear
6:35 AM 62.2 °F - 60.4 °F 94% 30.08 in 10.0 mi ESE 5.8 mph - N/A   Clear
6:55 AM 63.0 °F - 60.8 °F 93% 30.09 in 10.0 mi SE 4.6 mph - N/A   Clear
7:15 AM 63.9 °F - 61.0 °F 90% 30.10 in 10.0 mi SE 4.6 mph - N/A   Clear
7:35 AM 64.9 °F - 61.5 °F 89% 30.10 in 10.0 mi ESE 5.8 mph - N/A   Clear
7:55 AM 66.2 °F - 62.2 °F 87% 30.09 in 10.0 mi SE 5.8 mph - N/A   Scattered Clouds
8:15 AM 67.6 °F - 62.2 °F 83% 30.09 in 10.0 mi SSE 6.9 mph - N/A   Mostly Cloudy
8:35 AM 70.0 °F - 62.2 °F 76% 30.10 in 10.0 mi SSE 5.8 mph - N/A   Scattered Clouds
8:55 AM 71.1 °F - 62.6 °F 75% 30.10 in 10.0 mi SSE 5.8 mph - N/A   Scattered Clouds
9:15 AM 72.1 °F - 62.8 °F 72% 30.09 in 10.0 mi SE 8.1 mph - N/A   Clear
9:35 AM 73.4 °F - 63.7 °F 71% 30.09 in 10.0 mi SSE 9.2 mph - N/A   Clear
9:55 AM 75.0 °F - 64.6 °F 70% 30.08 in 10.0 mi South 9.2 mph - N/A   Clear
10:15 AM 76.5 °F - 64.9 °F 67% 30.08 in 10.0 mi South 8.1 mph - N/A   Clear
10:35 AM 77.4 °F - 65.1 °F 66% 30.08 in 10.0 mi South 6.9 mph - N/A   Clear
10:55 AM 78.3 °F - 65.8 °F 65% 30.07 in 10.0 mi South 10.4 mph - N/A   Clear
11:15 AM 79.3 °F - 66.2 °F 64% 30.07 in 10.0 mi South 8.1 mph - N/A   Scattered Clouds
11:35 AM 79.2 °F - 66.0 °F 64% 30.08 in 10.0 mi South 10.4 mph - N/A   Scattered Clouds
11:55 AM 79.5 °F - 66.6 °F 64% 30.07 in 10.0 mi South 10.4 mph - N/A   Mostly Cloudy
12:15 PM 80.1 °F 82.2 °F 66.4 °F 63% 30.07 in 10.0 mi SSE 8.1 mph - N/A   Scattered Clouds
12:35 PM 80.6 °F 82.9 °F 66.7 °F 63% 30.06 in 10.0 mi South 10.4 mph - N/A   Scattered Clouds
12:55 PM 80.6 °F 83.1 °F 67.3 °F 64% 30.05 in 10.0 mi SSE 8.1 mph - N/A   Scattered Clouds
1:15 PM 81.5 °F 83.9 °F 66.9 °F 61% 30.05 in 10.0 mi South 9.2 mph - N/A   Scattered Clouds
1:35 PM 81.9 °F 84.2 °F 66.9 °F 60% 30.05 in 10.0 mi SE 11.5 mph - N/A   Mostly Cloudy
1:55 PM 80.8 °F 83.1 °F 66.6 °F 62% 30.04 in 10.0 mi South 11.5 mph 17.3 mph N/A   Overcast
2:15 PM 82.0 °F 84.1 °F 66.0 °F 58% 30.03 in 10.0 mi SSE 9.2 mph - N/A   Mostly Cloudy
2:35 PM 82.8 °F 84.9 °F 66.0 °F 57% 30.02 in 10.0 mi SSE 10.4 mph 18.4 mph N/A Thunderstorm Mostly Cloudy
2:55 PM 75.6 °F - 64.8 °F 69% 30.03 in 1.0 mi SE 10.4 mph 26.5 mph 0.36 in Rain , Thunderstorm Heavy Thunderstorms and Rain
3:15 PM 70.5 °F - 68.0 °F 92% 30.03 in 10.0 mi Calm Calm - 0.02 in Rain , Thunderstorm Thunderstorms and Rain
3:35 PM 71.6 °F - 69.4 °F 93% 30.00 in 7.0 mi Calm Calm - 0.10 in Rain , Thunderstorm Light Thunderstorms and Rain
3:55 PM 73.0 °F - 70.7 °F 92% 29.99 in 10.0 mi ENE 4.6 mph - 0.11 in Thunderstorm Overcast
4:15 PM 73.9 °F - 71.1 °F 91% 29.99 in 10.0 mi NE 6.9 mph - N/A Thunderstorm Thunderstorm
4:35 PM 72.7 °F - 70.2 °F 92% 29.99 in 10.0 mi NNE 5.8 mph - N/A Thunderstorm Thunderstorm
4:55 PM 72.0 °F - 69.8 °F 93% 29.98 in 10.0 mi NE 5.8 mph - N/A Thunderstorm Overcast
5:15 PM 72.1 °F - 69.6 °F 92% 29.98 in 10.0 mi North 6.9 mph - N/A Thunderstorm Mostly Cloudy
5:35 PM 71.6 °F - 69.4 °F 93% 29.99 in 10.0 mi NNW 12.7 mph - N/A Thunderstorm Mostly Cloudy
5:55 PM 70.2 °F - 68.4 °F 94% 29.99 in 10.0 mi NNE 10.4 mph - N/A Thunderstorm Mostly Cloudy
6:15 PM 70.9 °F - 67.8 °F 90% 29.98 in 10.0 mi NE 9.2 mph - N/A Thunderstorm Thunderstorm
6:35 PM 71.1 °F - 68.0 °F 90% 29.98 in 10.0 mi ENE 6.9 mph - N/A Thunderstorm Overcast
6:55 PM 71.6 °F - 68.0 °F 88% 29.96 in 10.0 mi ENE 9.2 mph - N/A Thunderstorm Overcast
7:15 PM 72.0 °F - 67.5 °F 86% 29.96 in 10.0 mi ENE 11.5 mph 18.4 mph N/A Thunderstorm Thunderstorm
7:35 PM 71.8 °F - 67.3 °F 86% 29.96 in 10.0 mi ENE 9.2 mph - N/A   Mostly Cloudy
7:55 PM 71.1 °F - 67.5 °F 88% 29.96 in 10.0 mi East 8.1 mph - N/A Rain , Thunderstorm Light Thunderstorms and Rain
8:15 PM 70.5 °F - 67.3 °F 89% 29.96 in 10.0 mi SE 5.8 mph - N/A   Scattered Clouds
8:35 PM 69.6 °F - 67.3 °F 92% 29.96 in 10.0 mi SSE 4.6 mph - N/A   Clear
8:55 PM 68.7 °F - 67.1 °F 95% 29.96 in 10.0 mi SSE 3.5 mph - N/A   Clear
9:15 PM 68.2 °F - 67.1 °F 96% 29.96 in 10.0 mi Calm Calm - N/A   Clear
9:35 PM 67.6 °F - 66.6 °F 96% 29.96 in 10.0 mi SSE 3.5 mph - N/A   Clear
9:55 PM 67.5 °F - 66.2 °F 96% 29.96 in 10.0 mi SSE 3.5 mph - N/A   Clear
10:15 PM 67.5 °F - 66.2 °F 96% 29.96 in 10.0 mi South 4.6 mph - N/A   Clear
10:35 PM 67.5 °F - 66.2 °F 96% 29.95 in 10.0 mi Calm Calm - N/A   Clear
10:55 PM 67.5 °F - 66.2 °F 96% 29.96 in 10.0 mi SSE 3.5 mph - N/A   Clear
11:15 PM 68.9 °F - 66.6 °F 92% 29.97 in 10.0 mi South 3.5 mph - N/A   Clear
11:35 PM 71.4 °F - 66.7 °F 85% 29.98 in 10.0 mi Calm Calm - N/A   Clear
11:55 PM 72.1 °F - 66.7 °F 83% 29.99 in 10.0 mi Calm Calm - N/A   Clear